OPTUS D3

Last updated on Sat Jul 05 2025 00:02:44 GMT+0000 (Coordinated Universal Time)

1 35756U 09044B 25185.64222940 -.00000130 00000+0 00000+0 0 9996 2 35756 0.6574 84.4514 0001624 318.7310 267.0509 1.00282710 58151
UTC large
Height (km)
Speed (km/s)
/
Latitude / Longitude
Inclination (degrees)
Orbital Period (minutes)
Azimuth
Elevation
Range (km)
Doppler Factor

Next 0 passes for location: London (51.5072 / 0.1276)

Sorry there are no passes over London.